Tracking 19903 objects as of 16-Oct-2019
HD Live streaming from Space Station
objects crossing your sky now

LEMUR 2 TOMHENDERSON

Track LEMUR 2 TOMHENDERSON now!
10-day predictions
LEMUR 2 TOMHENDERSON is classified as:


NORAD ID: 43561
Int'l Code: 2018-046H
Perigee: 478.4 km
Apogee: 489.4 km
Inclination: 51.6 °
Period: 94.1 minutes
Semi major axis: 6854 km
RCS: Unknown
Launch date: May 21, 2018
Source: United States (US)
Launch site: WALLOPS ISLAND (WLPIS)
aabbcc
Your satellite tracking list
Your tracking list is empty




NASA's NSSDC Master Catalog

Two Line Element Set (TLE):
1 43561U 18046H   19288.94864173 +.00001216 +00000-0 +54062-4 0  9999
2 43561 051.6418 203.0454 0008057 147.4431 212.7047 15.29681715069371
Source of the keplerian elements: AFSPC